Regional Weather Roundup
Issued by NWS

Home | Current Version | Previous Version | Graphics & Text | Print | Product List | Glossary Off
Versions: 1 2 3 4 5 6 7 8 9 10 11 12 13 14 15 16 17 18 19 20 21 22 23 24 25 26 27 28 29 30 31 32 33 34 35 36 37 38 39 40 41 42 43 44 45 46 47 48 49 50

000
ASUS43 KLMK 281910
RWRKY
KENTUCKY REGIONAL WEATHER ROUNDUP
NATIONAL WEATHER SERVICE LOUISVILLE KY
300 PM EDT WED JUN 28 2017

NOTE "FAIR" INDICATES FEW OR NO CLOUDS BELOW 12,000 FEET
WITH NO SIGNIFICANT WEATHER AND/OR OBSTRUCTIONS TO VISIBILITY.

KYZ001>023-026-027-061>063-070>075-282000-
WESTERN AND SOUTH CENTRAL KENTUCKY

CITY           SKY/WX    TMP DP  RH WIND       PRES   REMARKS
PADUCAH        MOSUNNY   85  62  46 SW7       30.02F
HENDERSON      CLOUDY    83  62  49 S8        30.05F
OWENSBORO      CLOUDY    84  58  40 S6        30.06F
HOPKINSVILLE   MOSUNNY   84  60  43 S8        30.06F
BOWLING GREEN  MOSUNNY   84  55  36 CALM      30.09F
GLASGOW        SUNNY     82  53  36 W7        30.10F
$$

KYZ024-025-028>034-038-045-046-053-282000-
NORTH CENTRAL KENTUCKY

CITY           SKY/WX    TMP DP  RH WIND       PRES   REMARKS
LOUISVILLE/SDF PTSUNNY   84  54  35 S9        30.09F
LOUISVILLE/LOU SUNNY     82  55  39 MISG      30.09F
FORT KNOX      SUNNY     81  55  40 SE7       30.09S
$$

KYZ035>037-039>044-047>052-055>060-089>105-282000-
NORTHEAST KENTUCKY

CITY           SKY/WX    TMP DP  RH WIND       PRES   REMARKS
LEXINGTON      SUNNY     80  48  32 VRB6      30.13F
COVINGTON      MOSUNNY   78  56  46 S9        30.12F
FRANKFORT      SUNNY     80  54  40 MISG      30.11F
$$

KYZ054-064>069-076>088-106>120-282000-
SOUTHEAST KENTUCKY

CITY           SKY/WX    TMP DP  RH WIND       PRES   REMARKS
JACKSON        CLOUDY    78  55  44 CALM      30.17F
LONDON         SUNNY     79  50  36 NW7       30.15F
SOMERSET       SUNNY     79  52  38 CALM      30.15F
MIDDLESBORO    SUNNY     81  54  38 SE7       30.16F
MONTICELLO     CLEAR     80  56  43 VRB5      30.15F
$$





USA.gov is the U.S. government's official web portal to all federal, state and local government web resources and services.